Terminal Aerodrome Forecast
Issued by NWS

Home | Current Version | Previous Version | Text Only | Print | Product List | Glossary Off
Versions: 1 2 3 4 5 6 7 8 9 10 11 12 13 14 15 16 17

000
FTUS43 KOAX 241133
TAFCDR
TAF
KCDR 241133Z 2412/2512 36008KT 5SM -SN BR BKN035 OVC050
      TEMPO 2412/2416 2SM -SN BR OVC025
     FM241800 33007KT P6SM BKN025 OVC050
     FM242200 VRB05KT P6SM OVC050=

USA.gov is the U.S. government's official web portal to all federal, state and local government web resources and services.